Vorticity
nan nan nan nan nan nan nan nan nan nan nan nan nan nan nan nan nan nan nan nan nan nan nan nan nan nan nan nan nan nan nan nan nan nan nan nan nan nan nan nan nan nan nan nan nan nan nan nan nan nan nan nan nan nan nan nan nan nan nan nan nan nan nan nan nan nan nan nan nan nan nan nan nan nan nan nan nan nan nan nan nan nan nan nan nan nan nan nan nan nan nan nan nan nan nan nan nan nan nan nan nan nan nan
nan 5 5 5 5 4 4 3 3 3 4 5 5 5 5 5 5 4 4 4 4 4 5 5 5 6 6 6 6 6 5 4 4 4 5 5 5 6 6 6 7 8 10 12 14 16 17 16 13 11 10 9 8 6 5 4 5 6 6 7 6 5 5 8 8 6 5 5 6 7 9 10 9 8 6 5 6 8 8 9 9 9 10 11 11 10 10 11 10 9 9 9 9 10 10 9 8 7 8 8 6 5 nan
nan 5 5 5 4 4 3 3 3 3 4 5 5 5 5 5 5 5 4 4 5 5 6 6 6 6 6 6 5 5 5 4 4 5 5 5 6 6 6 6 7 9 11 13 13 12 10 11 11 9 6 7 7 6 6 6 6 7 7 7 6 6 5 7 8 6 6 6 8 10 12 13 11 10 8 6 6 7 10 11 10 9 9 10 11 12 15 17 16 15 14 12 12 13 13 10 8 6 7 8 6 5 nan
nan 4 4 4 4 4 3 3 3 4 5 5 5 5 5 5 5 5 5 5 5 5 5 6 5 5 5 4 4 4 4 5 5 5 6 6 6 6 7 8 9 10 12 12 12 10 5 6 7 7 5 5 6 6 6 7 8 8 8 7 6 6 8 9 8 7 6 7 9 11 14 14 12 11 10 8 8 8 11 11 10 8 8 8 10 12 15 15 15 15 15 14 15 16 14 12 10 7 8 7 7 6 nan
nan 3 4 4 4 3 4 4 4 4 5 5 5 5 5 5 6 6 5 5 5 5 5 5 5 4 4 4 4 5 5 5 5 6 6 6 6 6 8 9 10 11 11 10 10 10 8 5 5 4 4 4 5 5 5 6 7 8 8 7 6 7 10 10 9 7 7 7 8 9 12 12 11 10 10 11 11 10 12 12 9 7 6 7 10 11 12 12 11 11 12 12 13 14 12 10 8 6 8 9 9 11 nan
nan 2 3 3 4 4 4 5 5 5 5 5 5 5 5 5 6 6 5 5 5 5 5 5 5 5 5 5 5 5 5 5 5 5 5 6 6 8 9 11 11 11 10 9 8 9 9 6 6 5 4 4 5 5 5 5 6 7 7 6 6 7 10 10 8 7 7 7 7 8 9 9 8 8 10 12 12 9 12 12 8 8 7 7 9 9 8 9 9 10 11 14 14 11 9 6 4 3 7 10 10 13 nan
nan 2 3 3 3 4 5 5 5 5 5 4 5 5 5 5 5 5 5 5 5 5 6 6 6 6 6 6 6 6 5 5 5 5 5 6 7 9 12 13 12 11 9 7 6 7 8 7 7 6 5 5 5 6 5 5 6 6 6 4 3 6 10 11 10 9 7 6 7 7 7 7 7 8 10 12 12 11 11 10 9 9 10 11 11 10 8 10 10 9 10 14 14 11 9 8 7 8 10 10 9 10 nan
nan 2 3 3 4 5 5 5 5 4 4 4 5 5 5 5 5 5 5 5 6 6 6 6 6 6 6 6 5 5 5 5 5 5 6 7 9 11 14 15 14 12 9 6 5 5 7 7 6 5 5 6 5 6 6 6 6 6 6 4 3 4 8 10 11 11 10 8 7 7 7 7 8 9 10 11 11 10 10 10 11 11 11 11 11 10 10 12 12 12 13 14 13 12 11 10 10 10 11 13 12 10 nan
nan 3 3 3 3 4 5 5 5 5 5 5 6 6 6 5 5 5 5 6 6 6 6 6 6 6 6 5 5 5 5 5 5 5 6 8 10 12 15 16 15 12 8 5 4 4 5 6 5 5 5 6 6 6 8 7 6 7 7 5 5 6 7 9 11 13 12 10 8 8 7 7 8 9 10 10 9 8 7 8 8 8 9 9 8 8 9 11 11 11 12 12 12 12 12 12 11 11 12 13 12 11 nan
nan 3 3 2 2 4 5 6 6 5 5 6 7 7 6 6 5 5 5 6 6 6 6 6 6 6 5 5 5 5 5 5 5 6 7 9 11 13 15 15 14 11 7 4 3 3 5 6 5 6 6 6 6 6 7 7 6 7 6 6 6 7 8 9 11 14 14 11 10 8 8 8 8 8 8 7 7 7 6 7 7 6 6 6 6 7 8 9 10 10 10 10 11 11 12 12 11 11 10 11 12 12 nan
nan 3 3 2 2 4 6 7 7 6 6 6 6 6 6 6 5 5 5 6 6 6 6 6 6 6 5 5 5 5 5 5 6 7 9 11 12 13 14 13 12 9 6 3 2 2 4 7 6 7 7 6 6 6 6 7 6 7 4 6 6 6 8 9 10 14 14 12 10 9 8 8 8 8 7 6 6 6 6 7 6 6 6 6 6 6 7 8 9 9 9 9 9 9 10 10 10 9 9 10 11 12 nan
nan 4 3 2 3 5 7 8 8 7 6 6 5 5 5 5 5 6 6 6 6 6 5 5 5 5 5 5 5 5 5 5 6 8 10 11 12 12 11 10 8 6 4 2 1 0 1 5 6 7 8 7 6 7 7 7 7 8 3 4 6 7 8 9 11 14 14 11 10 8 7 7 7 7 6 6 6 6 8 7 7 7 6 6 6 6 6 7 7 7 7 7 7 7 7 8 8 8 7 8 8 8 nan
nan 4 2 2 5 6 7 8 8 7 6 5 5 4 4 5 5 6 6 6 6 5 5 5 5 5 5 5 5 5 5 6 7 9 11 12 12 11 9 8 6 4 2 0 -1 -2 1 5 6 7 8 7 7 7 8 8 7 8 5 3 7 8 9 10 13 15 13 10 8 7 6 6 6 6 7 7 7 8 9 8 7 7 6 6 6 6 6 7 6 6 5 5 5 5 6 6 6 6 5 5 6 6 nan
nan 2 2 5 7 7 7 8 8 7 6 5 5 4 4 5 5 6 6 6 6 5 5 5 5 5 5 5 5 5 5 7 9 10 12 12 11 10 8 6 4 2 1 -2 -2 0 4 6 6 6 7 8 6 6 8 9 8 7 9 5 7 8 9 12 14 15 13 10 8 6 6 6 6 6 7 8 9 10 10 9 8 7 6 6 6 7 7 7 7 6 5 5 5 5 5 5 5 5 5 5 5 4 nan
nan 3 5 7 7 6 7 8 7 7 6 5 5 4 5 5 6 6 6 6 5 5 5 5 5 4 5 5 5 5 5 7 9 11 11 11 11 10 8 5 3 1 -1 -2 1 5 7 7 7 6 7 7 7 6 7 8 8 6 9 8 8 8 10 12 14 14 12 10 8 7 6 6 7 7 9 10 11 12 11 10 10 10 8 7 7 8 8 8 8 7 6 6 6 5 5 5 5 5 5 4 4 4 nan
nan 5 6 6 6 6 7 7 7 6 5 5 5 5 5 6 6 6 6 6 5 5 5 5 4 4 5 5 6 6 3 4 6 8 10 11 10 9 7 5 3 1 -2 2 5 7 7 7 7 6 6 7 7 7 7 7 7 6 7 9 8 9 10 12 13 13 11 10 9 8 8 8 8 9 11 11 11 11 9 10 11 12 10 9 7 7 8 8 8 7 7 7 7 6 6 5 5 5 4 4 4 4 nan
nan 6 5 5 5 5 6 6 6 6 5 5 5 5 6 7 7 7 7 6 6 5 5 5 4 4 5 6 6 6 2 1 1 2 5 8 9 8 6 4 1 0 1 5 6 6 7 7 6 6 5 6 7 7 8 7 6 6 6 9 9 9 10 11 12 11 11 10 9 9 9 10 10 10 12 11 10 10 8 8 10 10 10 8 7 6 5 5 5 6 6 6 6 6 6 5 5 5 4 4 4 4 nan
nan 6 5 4 4 5 5 6 6 6 5 5 5 6 6 7 7 8 8 7 6 6 5 4 4 4 5 6 6 6 5 3 2 -0 -1 2 3 5 4 1 0 2 6 6 6 7 7 7 6 6 5 5 6 6 8 8 6 7 7 9 9 9 10 11 11 11 10 9 9 9 9 10 11 11 11 10 8 7 6 7 7 8 8 7 6 5 4 4 3 3 4 5 5 5 5 4 5 5 4 4 4 4 nan
nan 6 4 4 4 4 5 5 6 6 6 6 6 7 7 7 8 8 9 8 7 6 5 5 4 4 4 4 4 5 7 6 6 5 2 -1 -1 1 1 1 2 4 7 6 6 7 8 7 7 6 5 5 5 6 7 8 6 7 8 9 9 9 10 11 11 11 10 10 9 9 9 9 10 10 8 7 5 4 5 6 5 5 5 5 5 5 4 3 3 3 3 3 4 4 4 4 4 4 4 4 4 4 nan
nan 8 6 5 5 5 5 6 6 6 6 7 8 10 9 7 7 8 10 8 7 7 6 5 2 2 2 3 4 5 6 7 7 8 7 4 2 2 3 4 5 6 6 6 7 7 7 7 6 6 6 5 5 6 6 7 5 7 9 9 9 9 10 10 11 11 10 9 9 8 8 7 7 6 5 4 4 4 4 5 5 4 4 4 5 5 5 4 4 3 3 3 3 3 4 4 4 4 4 4 4 4 nan
nan 8 8 8 8 7 7 7 8 8 8 7 6 8 9 9 9 9 8 6 5 5 5 3 2 2 2 3 5 5 6 6 7 8 8 7 7 6 6 7 7 6 6 7 7 6 6 6 6 6 6 6 6 6 6 8 6 7 9 9 9 9 9 10 9 9 9 8 8 7 6 5 4 4 3 3 3 3 4 4 4 4 3 4 4 4 5 5 4 4 4 4 4 4 4 4 4 4 4 4 4 4 nan
nan 7 8 9 9 9 8 9 10 10 10 9 4 4 6 7 7 6 5 5 4 3 3 2 3 4 4 5 5 5 6 7 7 7 7 8 8 8 7 7 7 7 7 7 7 6 7 6 6 6 6 6 6 7 5 8 8 8 9 10 10 10 9 9 8 8 8 7 6 6 5 4 3 3 3 3 3 3 3 4 4 4 3 3 4 4 4 5 5 4 4 4 4 4 4 4 4 4 4 4 4 5 nan
nan 7 6 7 8 8 8 8 9 9 9 9 4 3 5 6 5 4 4 5 5 4 4 5 5 6 7 7 6 5 7 8 8 8 7 7 8 7 7 8 7 7 7 7 7 7 7 7 6 6 6 6 6 7 5 5 7 8 9 10 10 10 9 8 8 7 6 6 6 5 4 4 3 3 3 3 3 3 3 3 4 4 4 4 4 4 4 4 4 5 5 4 5 5 5 5 5 5 4 5 5 5 nan
nan 7 6 7 7 7 7 8 7 7 7 7 6 5 6 6 6 6 6 7 7 6 6 6 6 6 7 8 7 7 8 8 9 9 8 7 8 8 8 8 8 7 7 7 7 7 7 7 6 6 6 6 7 6 5 4 6 8 8 9 10 11 10 9 8 7 6 6 6 5 5 4 4 4 3 3 4 4 4 4 4 4 4 4 4 4 4 4 4 5 5 5 5 5 5 6 6 6 5 5 6 6 nan
nan 7 6 6 7 7 7 7 7 6 6 6 7 7 6 6 7 8 8 8 8 7 6 5 6 6 7 8 8 8 8 8 8 10 10 9 8 8 8 8 8 8 8 7 7 7 6 6 6 6 6 6 7 6 5 5 6 7 8 9 10 11 11 10 9 7 7 7 6 6 6 5 5 4 4 4 4 4 4 4 5 5 5 5 5 5 5 5 5 5 5 6 6 6 6 6 6 7 7 6 7 7 nan
nan 6 6 7 7 7 7 7 7 6 6 7 8 8 7 6 7 8 9 9 8 7 6 5 6 7 7 7 7 7 7 7 7 8 10 10 8 7 7 7 8 8 8 7 7 6 6 6 6 6 6 6 7 6 4 5 5 6 7 8 9 10 11 11 10 9 8 7 7 7 7 6 6 5 5 5 5 5 5 5 5 5 6 6 6 6 6 6 6 6 6 7 7 7 7 7 7 8 8 7 8 8 nan
nan 6 7 7 7 7 7 7 7 7 6 7 8 8 7 6 7 8 9 8 8 7 6 5 6 7 7 6 6 6 6 6 6 6 8 9 8 7 6 6 7 7 8 8 7 7 6 6 6 6 6 7 7 7 4 2 3 5 6 7 8 9 10 11 10 10 9 8 8 8 8 7 7 6 6 6 6 6 6 6 6 6 6 6 7 7 7 7 7 7 7 7 8 8 8 8 8 8 9 8 8 8 nan
nan 7 7 7 7 8 7 7 7 7 6 7 8 8 7 6 7 8 8 7 7 6 5 5 6 6 7 6 6 6 6 5 5 6 7 8 8 8 7 6 6 7 7 7 7 7 6 6 7 7 7 8 8 8 6 -0 1 5 7 7 8 9 9 10 10 11 10 9 8 8 7 8 7 7 7 6 6 6 6 7 7 7 7 7 7 7 7 7 8 8 8 8 8 8 8 8 8 8 9 8 8 8 nan
nan 7 7 8 7 8 7 7 7 6 6 7 7 7 7 7 7 7 7 6 6 6 6 6 6 7 7 7 6 6 7 6 4 5 7 8 8 9 8 7 7 7 7 7 7 6 6 6 7 7 8 8 8 8 7 2 2 5 7 7 7 8 9 9 9 10 10 9 8 8 7 7 7 7 7 7 7 7 7 7 7 7 7 7 7 7 7 7 8 8 8 8 8 8 8 8 8 8 8 8 8 8 nan
nan 7 7 8 8 8 8 7 7 6 7 7 6 6 7 8 8 8 6 6 6 7 7 7 7 7 7 7 7 6 7 7 5 4 5 7 8 9 9 8 7 7 7 7 7 6 6 6 7 7 7 6 7 7 7 5 3 4 7 6 7 7 8 8 8 8 8 8 8 7 7 7 7 8 7 7 7 7 7 7 8 7 7 7 7 7 7 7 8 8 8 8 8 8 8 8 8 8 8 8 8 8 nan
nan 7 7 7 7 7 8 8 7 6 7 7 7 7 8 9 10 9 7 6 6 6 6 6 7 7 7 7 7 6 7 7 7 6 5 6 7 8 9 9 8 7 6 7 7 7 7 7 7 7 6 6 7 7 7 6 3 2 5 6 6 6 7 7 7 7 7 7 7 7 7 7 8 8 8 8 8 8 8 8 8 8 7 7 7 7 7 8 8 8 8 8 8 8 8 8 8 8 8 8 8 8 nan
nan 7 7 7 7 7 9 8 7 6 6 7 8 8 9 10 9 8 8 8 7 7 6 6 6 6 7 7 7 6 8 8 7 6 5 5 5 7 8 9 8 7 7 8 8 8 8 8 8 7 6 7 7 7 7 7 4 1 -1 4 5 6 6 6 6 6 7 7 7 7 7 8 8 8 8 8 8 8 8 9 8 8 8 8 8 8 8 8 8 8 8 8 8 8 8 8 8 8 8 8 8 8 nan
nan 7 7 7 7 8 9 8 7 6 7 8 8 8 9 9 9 8 8 8 9 9 9 9 8 8 8 7 7 7 9 9 8 7 6 5 5 6 6 8 8 7 8 9 9 8 8 8 8 7 7 7 7 7 7 8 7 4 -0 1 3 4 5 5 5 5 6 6 7 7 7 8 8 8 9 9 9 9 9 9 9 9 9 8 8 8 8 8 8 8 8 8 8 8 8 9 9 9 9 8 8 8 nan
nan 7 7 7 8 8 8 8 7 7 8 9 9 9 9 8 9 9 9 8 8 9 11 11 10 9 8 7 6 7 8 9 9 8 7 5 6 6 7 8 8 8 9 9 9 8 8 8 7 6 7 7 7 7 8 8 8 7 4 2 2 3 4 4 4 4 5 6 6 7 7 8 8 8 9 9 9 9 9 10 10 10 9 9 9 8 8 8 8 8 8 8 8 8 9 9 9 9 9 8 8 8 nan
nan 7 7 7 7 8 8 8 8 8 9 9 10 10 9 7 7 7 7 7 6 6 7 8 7 7 7 7 6 7 7 8 9 9 7 6 6 7 8 8 8 8 8 8 8 9 10 8 7 6 7 7 7 7 7 7 7 7 6 3 3 3 2 2 2 2 4 5 6 6 7 7 7 7 8 8 9 9 9 9 9 9 9 9 8 8 8 8 8 8 8 8 8 9 9 9 9 9 8 8 8 8 nan
nan 8 7 7 7 8 7 8 9 9 9 8 9 9 8 5 5 5 5 6 6 6 6 7 7 7 7 7 6 6 7 9 8 8 6 6 7 7 8 7 8 9 8 7 8 9 10 9 7 7 7 6 6 6 7 7 7 8 7 4 3 2 0 -1 -1 0 2 4 5 5 5 5 6 6 6 7 8 8 9 9 9 8 8 8 8 8 8 8 8 8 8 8 9 9 9 9 9 9 8 8 8 8 nan
nan 8 8 8 7 7 7 8 9 9 9 8 8 7 6 5 5 5 6 7 7 6 5 6 7 8 9 7 6 6 7 9 9 7 5 6 7 8 7 7 9 9 8 7 8 9 10 9 7 7 6 7 7 7 6 7 8 8 7 6 5 4 3 1 -0 -1 -1 1 3 4 4 4 4 5 5 6 6 7 7 8 8 8 8 7 7 7 7 8 8 8 8 9 9 9 9 9 8 8 8 7 7 8 nan
nan 8 8 8 8 7 7 8 9 9 8 8 7 7 6 6 6 7 8 8 7 5 5 5 6 6 8 8 7 6 8 9 9 7 6 7 8 7 6 8 9 9 8 8 8 10 9 8 7 7 7 7 7 7 7 8 8 7 7 8 7 7 6 6 4 2 -1 -1 0 2 3 3 4 4 4 4 4 5 6 7 7 7 7 7 7 7 7 7 8 8 9 9 9 9 9 9 8 7 7 7 8 8 nan
nan 8 8 8 8 7 7 9 10 8 7 7 7 7 7 7 7 7 8 7 6 5 5 6 5 4 6 7 6 6 8 9 9 7 7 8 7 6 6 7 9 9 8 8 8 9 9 9 8 7 7 7 7 7 8 8 7 7 8 8 7 7 7 7 7 6 3 1 -0 0 2 3 3 3 3 3 3 4 4 5 5 6 6 6 6 6 6 7 7 8 8 9 9 9 9 8 8 7 7 7 8 8 nan
nan 8 8 7 7 7 9 11 10 7 6 7 7 7 8 7 6 6 6 6 5 5 7 7 5 4 4 5 6 6 6 8 8 8 8 8 7 6 6 7 8 9 9 9 9 8 9 9 9 8 6 6 8 9 8 7 7 7 8 8 8 8 8 8 8 7 6 5 3 0 0 3 3 3 3 2 2 2 3 4 4 5 5 5 5 5 5 6 7 7 8 9 9 9 9 8 8 7 7 7 8 8 nan
nan 8 8 7 7 8 11 11 8 5 6 7 7 7 8 7 7 6 5 4 3 4 7 9 8 6 4 5 6 6 7 7 8 7 8 7 7 7 7 8 9 9 9 9 9 9 9 9 9 8 6 7 9 10 8 7 7 7 7 8 8 8 8 8 8 7 7 7 6 3 1 3 4 4 3 3 2 2 2 3 3 4 4 4 4 5 5 5 6 7 8 9 9 9 9 8 8 7 7 8 8 8 nan
nan 8 8 8 8 10 11 9 6 5 7 7 7 7 8 7 7 7 6 4 4 4 6 9 11 9 7 6 7 7 7 7 7 7 7 7 7 8 9 9 9 9 9 9 9 8 8 9 9 9 8 8 9 9 8 7 7 7 7 7 8 8 8 7 7 7 8 8 7 6 4 3 5 6 5 4 3 3 2 2 2 3 3 3 4 4 4 4 5 6 7 8 9 9 9 9 8 8 8 8 8 8 nan
nan 8 8 8 9 10 10 8 5 6 6 7 7 7 7 7 8 8 7 6 5 5 5 8 10 10 9 8 7 7 7 7 7 7 7 8 8 9 10 9 9 9 9 9 9 8 8 9 9 9 9 10 10 8 7 7 7 7 7 8 8 8 8 7 8 8 8 8 8 8 6 4 5 7 7 6 4 3 2 2 1 1 2 3 3 3 3 3 4 5 6 7 8 9 9 9 9 9 9 9 9 9 nan
nan 8 8 8 9 10 10 7 5 6 7 7 7 8 8 8 8 7 7 6 6 5 5 7 9 11 11 9 8 8 7 7 7 7 8 9 9 9 10 9 8 9 10 10 9 8 8 8 9 9 9 10 9 8 8 7 8 8 8 8 9 9 8 8 8 9 9 9 9 9 8 7 6 6 7 6 6 5 4 2 1 1 1 2 3 3 3 3 3 4 5 6 7 8 9 9 9 9 9 9 9 9 nan
nan 7 7 9 10 10 8 5 4 5 7 8 8 8 7 8 7 6 6 6 7 7 6 6 9 12 14 13 11 9 8 8 8 8 8 9 9 9 9 8 7 8 10 10 9 9 8 9 9 9 9 9 9 8 8 8 8 8 8 8 9 9 8 8 9 9 9 10 10 9 9 9 8 7 7 7 7 6 5 3 2 1 2 2 3 3 3 3 3 3 4 5 6 7 7 8 9 9 9 10 9 9 nan
nan 7 7 9 10 10 7 4 4 6 7 8 8 7 7 7 6 6 6 7 8 9 8 7 6 7 10 14 13 10 9 9 8 7 7 8 8 8 10 9 8 8 9 9 9 9 8 9 9 9 9 9 9 9 8 8 9 8 8 8 8 8 8 8 8 9 10 10 10 10 9 10 10 11 10 8 8 8 7 5 5 4 3 3 4 3 3 3 3 3 3 4 5 6 6 7 8 8 9 10 10 9 nan
nan 7 8 10 9 9 6 4 4 6 8 8 8 6 6 6 6 6 5 6 7 8 8 8 5 3 4 7 9 10 10 9 8 6 6 6 6 5 7 9 9 8 7 8 8 9 9 9 9 9 8 8 9 9 9 9 9 9 9 9 9 8 8 8 8 9 10 10 9 10 10 9 9 11 10 9 9 8 7 8 9 8 6 6 5 4 4 4 3 3 3 3 4 5 5 6 7 7 8 9 9 9 nan
nan 6 9 11 9 7 6 5 5 7 8 7 7 7 6 6 7 7 6 6 7 7 7 6 5 5 4 2 4 7 9 8 8 7 6 4 4 4 4 7 7 8 7 6 7 8 9 10 9 9 8 8 9 9 10 11 10 10 9 9 8 8 7 8 8 9 9 9 8 9 9 9 8 9 9 8 8 8 8 9 8 7 8 9 8 7 6 5 4 3 3 3 3 4 4 5 5 6 7 8 8 8 nan
nan 5 8 11 9 7 6 6 6 6 7 7 7 9 9 8 8 8 9 8 7 5 5 5 6 7 7 4 4 6 7 8 9 8 7 5 4 5 5 6 6 8 8 7 6 5 7 9 8 8 8 8 9 9 10 11 11 11 9 9 8 7 7 8 9 9 9 8 8 8 8 9 8 8 9 9 9 8 8 8 8 6 6 8 9 10 10 9 7 5 3 2 2 3 4 4 5 5 6 7 7 8 nan
nan 5 7 9 9 7 7 7 5 6 6 7 10 12 12 11 11 10 9 8 6 4 5 6 7 9 8 6 6 6 7 8 8 7 7 8 8 7 6 5 7 9 10 9 7 5 6 6 6 6 7 7 8 8 9 11 11 11 9 8 8 7 7 8 8 9 9 8 8 8 8 9 9 9 9 9 9 9 9 9 8 8 6 6 8 10 12 12 10 6 3 1 2 2 3 4 4 5 5 6 6 7 nan
nan 7 7 7 8 7 8 7 5 6 7 8 10 12 13 11 9 7 6 5 3 3 4 5 7 8 8 9 8 7 7 8 8 8 8 9 10 11 8 5 5 6 10 12 8 6 5 4 5 5 6 7 7 7 8 10 10 10 9 8 7 7 7 7 8 8 8 7 7 7 8 9 9 9 8 9 9 9 9 9 9 9 9 9 9 9 8 8 6 5 4 2 2 2 3 3 4 4 5 5 6 7 nan
nan 8 7 6 7 6 8 8 6 7 6 5 7 8 9 8 5 4 6 6 3 3 2 4 6 7 8 10 9 9 8 10 10 10 9 8 7 8 8 8 6 5 7 10 9 6 3 4 6 6 5 7 7 7 7 9 9 8 8 8 7 6 6 6 7 8 7 6 6 6 7 8 8 8 8 8 8 9 9 8 9 9 9 8 7 8 7 5 4 5 6 6 5 4 4 4 4 4 4 5 5 6 nan
nan 7 6 6 6 6 7 9 8 7 5 5 6 6 6 6 5 5 6 5 4 4 5 7 8 6 7 8 8 9 9 10 10 10 8 8 5 4 7 10 10 8 8 10 8 6 2 5 6 7 4 6 7 7 7 9 8 6 7 7 7 6 6 7 8 8 7 6 6 7 7 7 7 7 7 7 7 8 8 8 8 8 8 8 8 9 8 4 4 7 10 10 10 9 8 6 5 4 5 5 5 6 nan
nan 9 5 3 5 6 7 9 7 7 6 6 7 8 8 7 5 5 5 6 5 5 7 8 8 7 7 6 7 7 8 8 9 11 12 9 7 5 7 9 10 10 9 8 8 9 7 7 6 5 3 5 8 8 8 7 7 7 7 7 8 8 8 8 9 8 7 6 6 7 7 7 7 6 6 7 7 8 7 7 8 8 8 8 8 8 6 3 4 10 13 12 11 11 11 9 8 7 7 6 6 6 nan
nan 8 4 3 4 6 9 9 5 6 6 6 9 10 11 8 5 6 7 7 6 6 5 6 6 5 5 6 6 6 7 7 8 9 11 10 10 8 7 5 6 7 10 9 9 9 8 6 8 9 7 5 8 10 7 5 6 8 7 7 8 9 10 10 9 8 7 7 7 7 7 7 6 6 6 8 8 8 7 7 8 9 9 8 7 7 5 5 10 14 13 10 9 10 11 11 11 11 9 8 8 8 nan
nan 6 4 6 7 6 8 7 6 6 6 5 7 9 9 9 9 10 9 9 8 5 3 4 5 4 5 8 7 6 7 8 8 8 9 10 11 11 10 8 6 5 7 9 10 9 8 8 10 12 9 6 7 9 6 4 5 6 6 6 7 8 9 9 8 7 7 9 9 9 8 8 7 7 7 8 8 8 8 9 9 9 10 9 9 9 9 11 12 12 10 9 9 9 9 13 14 14 13 11 10 9 nan
nan 8 7 7 8 6 5 5 6 6 5 6 7 8 8 9 10 10 10 9 7 5 4 6 6 4 6 10 10 8 7 9 8 7 7 8 10 13 14 13 11 10 10 10 10 10 10 11 10 9 8 7 8 7 7 5 6 7 6 6 6 7 8 8 8 7 7 8 9 11 10 9 8 8 8 8 8 8 9 10 10 10 10 10 11 11 11 11 11 12 12 11 11 8 10 16 17 17 15 13 12 11 nan
nan 10 9 8 8 6 3 4 6 5 6 7 7 7 9 9 9 9 10 9 7 7 7 6 6 6 6 7 9 10 10 9 6 5 5 6 6 10 12 14 14 15 14 13 12 11 9 8 10 8 8 7 9 8 8 6 7 9 8 7 7 8 9 9 8 7 7 7 8 9 11 10 9 8 8 8 8 8 9 10 11 11 11 11 12 12 11 11 12 14 14 12 11 10 13 17 19 18 15 14 13 11 nan
nan 8 8 8 9 8 5 5 6 5 7 9 7 8 10 10 9 8 10 10 10 9 7 6 7 8 8 6 6 9 12 9 6 5 5 4 4 6 8 10 11 13 14 15 14 12 11 9 10 9 9 8 8 7 7 8 8 9 8 7 8 9 11 9 7 6 7 7 7 7 9 9 9 8 8 8 8 8 9 10 10 10 11 11 11 10 8 8 10 11 10 9 11 12 13 14 15 15 14 12 11 10 nan
nan 7 7 8 8 7 6 6 6 6 7 8 7 9 11 10 9 8 10 13 13 11 7 7 7 8 9 7 6 9 10 9 6 5 6 6 5 5 7 8 8 8 10 11 12 13 14 13 11 10 9 10 9 8 5 7 9 9 7 6 8 10 12 9 6 5 6 6 7 7 8 8 8 8 8 8 8 8 8 9 10 10 10 10 9 8 8 8 7 6 7 6 5 8 10 10 10 11 11 10 9 8 nan
nan nan nan nan nan nan nan nan nan nan nan nan nan nan nan nan nan nan nan nan nan nan nan nan nan nan nan nan nan nan nan nan nan nan nan nan nan nan nan nan nan nan nan nan nan nan nan nan nan nan nan nan nan nan nan nan nan nan nan nan nan nan nan nan nan nan nan nan nan nan nan nan nan nan nan nan nan nan nan nan nan nan nan nan nan nan nan nan nan nan nan nan nan nan nan nan nan nan nan nan nan nan nan
CAPE
18 14 9 10 16 16 14 8 3 3 3 6 6 6 7 7 7 6 4 3 3 2 2 3 5 5 8 9 7 7 4 4 6 6 12 15 15 24 16 7 7 0 nan nan nan nan nan nan nan nan nan nan nan nan nan nan nan nan nan nan nan nan nan 12 45 45 60 78 70 70 59 75 88 88 67 69 69 59 40 33 33 37 30 32 28 28 30 33 27 27 31 45 97 97 170 344 344 474 385 403 403 370 325
15 12 8 6 7 7 5 2 0 0 3 7 7 7 6 8 8 8 7 4 4 3 4 5 9 9 12 14 14 14 7 1 4 4 11 17 17 17 9 0 0 nan nan nan nan nan nan nan nan nan nan nan nan nan nan nan nan nan nan nan nan nan nan 44 47 47 70 88 82 82 71 88 97 97 115 115 115 88 73 67 67 84 103 131 114 114 98 56 39 39 35 22 44 44 142 317 317 445 421 460 460 436 399
12 15 15 6 2 2 1 1 1 1 4 9 12 12 18 20 20 20 16 10 10 9 7 10 10 10 15 25 19 19 9 2 3 3 7 12 12 9 2 nan nan nan nan nan nan nan nan nan nan nan nan nan nan nan nan nan nan nan nan nan nan nan nan 39 36 36 58 91 92 92 72 88 86 86 111 107 107 93 88 97 97 140 250 359 332 332 299 174 114 114 87 58 48 48 122 319 319 412 390 423 423 487 478
14 25 21 12 4 4 1 3 7 7 11 14 17 17 25 28 28 26 27 25 25 26 24 22 20 20 23 25 18 18 12 8 3 3 3 3 3 1 nan nan nan nan nan nan nan nan nan nan nan nan nan nan nan nan nan nan nan nan nan nan nan nan 3 58 18 18 36 66 85 85 92 86 102 102 99 88 88 72 99 149 149 242 313 384 452 452 392 464 573 573 415 176 71 71 135 276 276 382 388 392 392 453 483
24 30 29 19 14 14 13 8 14 14 17 20 24 24 30 35 35 35 34 31 31 28 23 19 12 12 14 11 7 7 7 4 nan nan nan nan nan nan nan nan nan nan nan nan nan nan nan nan nan nan nan nan nan nan nan nan nan nan nan nan nan nan 18 29 7 7 15 36 75 75 99 97 107 107 97 95 95 110 159 231 231 262 312 310 348 348 319 429 554 554 483 367 163 163 226 346 346 444 425 406 406 394 385
27 35 33 28 28 28 23 21 20 20 24 27 26 26 32 43 43 43 45 33 33 24 16 8 7 7 4 5 6 6 7 2 nan nan nan nan nan nan nan nan nan nan nan nan nan nan nan nan nan nan nan nan nan nan nan nan nan nan nan nan nan nan 13 7 1 1 3 12 48 48 86 93 94 94 97 115 115 151 329 289 289 233 252 285 264 264 259 280 312 312 353 377 273 273 320 401 401 467 458 459 459 377 345
26 33 35 37 38 38 33 28 26 26 36 36 35 35 48 62 62 64 59 39 39 23 14 11 9 9 10 12 10 10 7 1 nan nan nan nan nan nan nan nan nan nan nan nan nan nan nan nan nan nan nan nan nan nan nan nan nan nan nan nan nan 7 12 1 3 3 1 2 22 22 65 66 60 60 83 138 138 258 387 295 295 270 270 277 282 282 237 239 247 247 284 302 243 243 253 324 324 466 404 424 424 453 436
30 33 41 39 47 47 47 40 44 44 50 56 56 56 67 78 78 75 61 35 35 25 21 23 26 26 20 16 14 14 3 nan nan nan nan nan nan nan nan nan nan nan nan nan nan nan nan nan nan nan nan nan nan nan nan nan nan nan nan nan nan nan 10 4 6 6 7 7 25 25 50 57 49 49 92 145 145 211 273 261 261 237 254 228 233 233 246 244 262 262 320 351 304 304 298 325 325 352 371 387 387 416 441
30 34 36 51 62 62 70 62 62 62 76 83 83 83 90 86 86 72 60 36 36 33 29 38 35 35 33 28 13 13 1 nan nan nan nan nan nan nan nan nan nan nan nan nan nan nan nan nan nan nan nan nan nan nan nan nan nan nan nan nan nan nan 2 5 8 8 10 13 34 34 47 44 58 58 93 128 128 158 174 214 214 208 206 191 172 172 195 203 237 237 316 369 344 344 346 328 328 310 348 330 330 360 393
37 40 49 59 86 86 109 100 91 91 102 125 124 124 122 104 104 68 52 42 42 39 42 45 43 43 35 16 3 3 nan nan nan nan nan nan nan nan nan nan nan nan nan nan nan nan nan nan nan nan nan nan nan nan nan nan nan nan nan nan nan nan nan 3 11 11 11 31 47 47 61 58 63 63 84 109 109 116 147 175 175 171 142 130 129 129 141 160 190 190 233 272 276 276 283 272 272 251 276 318 318 366 402
39 47 56 67 117 117 147 149 152 152 152 148 165 165 145 111 111 73 50 48 48 45 42 46 38 38 25 7 1 1 nan nan nan nan nan nan nan nan nan nan nan nan nan nan nan nan nan nan nan nan nan nan nan nan nan nan nan nan nan nan nan nan nan 0 21 21 23 41 58 58 70 67 61 61 69 79 79 93 109 133 133 132 118 100 99 99 108 125 160 160 183 201 192 192 200 209 209 231 258 285 285 321 362
48 84 86 99 143 143 197 196 200 200 181 179 179 179 157 120 120 70 61 53 53 44 42 35 24 24 14 3 nan nan nan nan nan nan nan nan nan nan nan nan nan nan nan nan nan nan nan nan nan nan nan nan nan nan nan nan nan nan nan nan nan nan nan 1 33 33 45 56 64 64 70 59 56 56 56 55 55 78 96 121 121 131 106 80 69 69 83 97 138 138 147 126 118 118 136 143 143 159 195 206 206 240 243
87 116 120 189 192 192 251 230 232 232 212 212 212 212 189 131 131 100 76 57 57 43 31 25 12 12 2 0 nan nan nan nan nan nan nan nan nan nan nan nan nan nan nan nan nan nan nan nan nan nan nan nan nan nan nan nan nan nan nan nan nan nan nan 1 32 32 56 63 60 60 56 49 46 46 43 46 46 71 118 125 125 120 94 69 56 56 59 82 97 97 94 78 70 70 71 88 88 103 108 113 113 121 121
220 206 233 346 265 265 288 287 266 266 246 245 224 224 202 161 161 109 82 55 55 42 26 13 3 3 0 nan nan nan nan nan nan nan nan nan nan nan nan nan nan nan nan nan nan nan nan nan nan nan nan nan nan nan nan nan nan nan nan nan nan nan nan 6 35 35 52 54 52 52 42 42 40 40 39 52 52 77 117 123 123 115 81 58 56 56 55 66 69 69 66 53 49 49 46 48 48 50 51 51 51 46 44
266 195 184 269 341 341 323 302 302 302 280 301 279 279 234 172 172 119 89 59 59 40 24 5 nan nan nan nan nan nan nan nan nan nan nan nan nan nan nan nan nan nan nan nan nan nan nan nan nan nan nan nan nan nan nan nan nan nan nan nan nan nan nan 6 47 47 51 45 41 41 41 38 44 44 44 58 58 89 133 129 129 110 79 64 57 57 56 60 66 66 60 49 43 43 40 42 42 38 35 32 32 27 24
25 20 65 279 350 350 312 314 315 315 338 336 313 313 268 204 204 146 98 64 64 43 17 0 nan nan nan nan nan nan nan nan nan nan nan nan nan nan nan nan nan nan nan nan nan nan nan nan nan nan nan nan nan nan nan nan nan nan nan nan nan nan nan 13 49 49 57 44 39 39 39 36 46 46 54 80 80 146 198 161 161 116 78 75 62 62 59 61 66 66 61 53 48 48 42 37 37 31 29 24 24 23 18
nan nan 7 228 296 296 280 305 350 350 372 395 371 371 302 238 238 177 108 68 68 33 12 nan nan nan nan nan nan nan nan nan nan nan nan nan nan nan nan nan nan nan nan nan nan nan nan nan nan nan nan nan nan nan nan nan nan nan nan nan nan nan nan 10 40 40 44 47 48 48 47 41 52 52 73 102 102 165 193 128 128 77 63 83 59 59 55 53 54 54 58 57 52 52 50 39 39 31 26 24 24 19 16
nan nan 119 182 225 225 270 316 384 384 430 430 406 406 338 272 272 209 118 63 63 24 2 nan nan nan nan nan nan nan nan nan nan nan nan nan nan nan nan nan nan nan nan nan nan nan nan nan nan nan nan nan nan nan nan nan nan nan nan nan nan nan nan 15 34 34 40 48 50 50 44 51 55 55 85 117 117 146 115 79 79 63 60 65 53 53 45 39 39 39 47 50 51 51 45 39 39 33 26 22 22 20 15
nan 10 84 159 180 180 240 304 394 394 466 467 419 419 350 284 284 220 127 69 69 16 nan nan nan nan nan nan nan nan nan nan nan nan nan nan nan nan nan nan nan nan nan nan nan nan nan nan nan nan nan nan nan nan nan nan nan nan nan nan nan nan 1 19 30 30 38 40 48 48 49 58 58 58 75 77 77 68 62 50 50 54 51 47 40 40 31 26 27 27 26 30 30 30 31 33 33 28 24 17 17 16 13
nan nan 45 107 145 145 161 190 279 279 440 547 306 306 309 220 220 127 111 10 10 nan nan nan nan nan nan nan nan nan nan nan nan nan nan nan nan nan nan nan nan nan nan nan nan nan nan nan nan nan nan nan nan nan nan nan nan nan nan nan nan nan 5 20 36 36 36 43 46 46 41 45 44 44 40 29 29 20 22 24 24 25 25 28 25 25 22 14 8 8 7 4 6 6 9 14 14 17 16 13 13 11 10
nan nan nan nan 6 6 0 nan 24 24 98 432 nan nan nan nan nan nan nan nan nan nan nan nan nan nan nan nan nan nan nan nan nan nan nan nan nan nan nan nan nan nan nan nan nan nan nan nan nan nan nan nan nan nan nan nan nan nan nan nan nan nan 4 19 30 30 35 41 40 40 35 35 29 29 25 19 19 13 12 13 13 15 15 15 16 16 16 9 4 4 0 nan 0 0 1 3 3 7 8 8 8 9 8
nan nan nan nan nan nan nan nan nan nan nan 157 nan nan nan nan nan nan nan nan nan nan nan nan nan nan nan nan nan nan nan nan nan nan nan nan nan nan nan nan nan nan nan nan nan nan nan nan nan nan nan nan nan nan nan nan nan nan nan nan nan nan 2 16 24 24 25 30 29 29 25 23 18 18 15 9 9 7 4 5 5 5 5 5 6 6 8 7 1 1 nan nan nan nan nan nan nan 0 2 3 3 3 4
nan nan nan nan nan nan nan nan nan nan nan 1 nan nan nan nan nan nan nan nan nan nan nan nan nan nan nan nan nan nan nan nan nan nan nan nan nan nan nan nan nan nan nan nan nan nan nan nan nan nan nan nan nan nan nan nan nan nan nan nan nan nan 2 9 17 17 17 18 16 16 14 11 7 7 5 2 2 0 nan nan nan nan nan nan nan nan nan 1 nan nan nan nan nan nan nan nan nan nan nan nan nan nan 0
nan nan nan nan nan nan nan nan nan nan nan nan nan nan nan nan nan nan nan nan nan nan nan nan nan nan nan nan nan nan nan nan nan nan nan nan nan nan nan nan nan nan nan nan nan nan nan nan nan nan nan nan nan nan nan nan nan nan nan nan nan nan nan 3 9 9 12 10 8 8 5 3 1 1 nan nan nan nan nan nan nan nan nan nan nan nan nan nan nan nan nan nan nan nan nan nan nan nan nan nan nan nan nan
nan nan nan nan nan nan nan nan nan nan nan nan nan nan nan nan nan nan nan nan nan nan nan nan nan nan nan nan nan nan nan nan nan nan nan nan nan nan nan nan nan nan nan nan nan nan nan nan nan nan nan nan nan nan nan nan nan nan nan nan nan nan nan nan 2 2 6 4 3 3 1 0 nan nan nan nan nan nan nan nan nan nan nan nan nan nan nan nan nan nan nan nan nan nan nan nan nan nan nan nan nan nan nan
nan nan nan nan nan nan nan nan nan nan nan nan nan nan nan nan nan nan nan nan nan nan nan nan nan nan nan nan nan nan nan nan nan nan nan nan nan nan nan nan nan nan nan nan nan nan nan nan nan nan nan nan nan nan nan nan nan nan nan nan nan nan nan nan nan nan 0 0 0 0 nan nan nan nan nan nan nan nan nan nan nan nan nan nan nan nan nan nan nan nan nan nan nan nan nan nan nan nan nan nan nan nan nan
nan nan nan nan nan nan nan nan nan nan nan nan nan nan nan nan nan nan nan nan nan nan nan nan nan nan nan nan nan nan nan nan nan nan nan nan nan nan nan nan nan nan nan nan nan nan nan nan nan nan nan nan nan nan nan nan nan nan nan nan nan nan nan nan nan nan nan nan nan nan nan nan nan nan nan nan nan nan nan nan nan nan nan nan nan nan nan nan nan nan nan nan nan nan nan nan nan nan nan nan nan nan nan
nan nan nan nan nan nan nan nan nan nan nan nan nan nan nan nan nan nan nan nan nan nan nan nan nan nan nan nan nan nan nan nan nan nan nan nan nan nan nan nan nan nan nan nan nan nan nan nan nan nan nan nan nan nan nan nan nan nan nan nan nan nan nan nan nan nan nan nan nan nan nan nan nan nan nan nan nan nan nan nan nan nan nan nan nan nan nan nan nan nan nan nan nan nan nan nan nan nan nan nan nan nan nan
nan nan nan nan nan nan nan nan nan nan nan nan nan nan nan nan nan nan nan nan nan nan nan nan nan nan nan nan nan nan nan nan nan nan nan nan nan nan nan nan nan nan nan nan nan nan nan nan nan nan nan nan nan nan nan nan nan nan nan nan nan nan nan nan nan nan nan nan nan nan nan nan nan nan nan nan nan nan nan nan nan nan nan nan nan nan nan nan nan nan nan nan nan nan nan nan nan nan nan nan nan nan nan
nan nan nan nan nan nan nan nan nan nan nan nan nan nan nan nan nan nan nan nan nan nan nan nan nan nan nan nan nan nan nan nan nan nan nan nan nan nan nan nan nan nan nan nan nan nan nan nan nan nan nan nan nan nan nan nan nan nan nan nan nan nan nan nan nan nan nan nan nan nan nan nan nan nan nan nan nan nan nan nan nan nan nan nan nan nan nan nan nan nan nan nan nan nan nan nan nan nan nan nan nan nan nan
nan nan nan nan nan nan nan nan nan nan nan nan nan nan nan nan nan nan nan nan nan nan nan nan nan nan nan nan nan nan nan nan nan nan nan nan nan nan nan nan nan nan nan nan nan nan nan nan nan nan nan nan nan nan nan nan nan nan nan nan nan nan nan nan nan nan nan nan nan nan nan nan nan nan nan nan nan nan nan nan nan nan nan nan nan nan nan nan nan nan nan nan nan nan nan nan nan nan nan nan nan nan nan
nan nan nan nan nan nan nan nan nan nan nan nan nan nan nan nan nan nan nan nan nan nan nan nan nan nan nan nan nan nan nan nan nan nan nan nan nan nan nan nan nan nan nan nan nan nan nan nan nan nan nan nan nan nan nan nan nan nan nan nan nan nan nan nan nan nan nan nan nan nan nan nan nan nan nan nan nan nan nan nan nan nan nan nan nan nan nan nan nan nan nan nan nan nan nan nan nan nan nan nan nan nan nan
nan nan nan nan nan nan nan nan nan nan nan nan nan nan nan nan nan nan nan nan nan nan nan nan nan nan nan nan nan nan nan nan nan nan nan nan nan nan nan nan nan nan nan nan nan nan nan nan nan nan nan nan nan nan nan nan nan nan nan nan nan nan nan nan nan nan nan nan nan nan nan nan nan nan nan nan nan nan nan nan nan nan nan nan nan nan nan nan nan nan nan nan nan nan nan nan nan nan nan nan nan nan nan
nan nan nan nan nan nan nan nan nan nan nan nan nan nan nan nan nan nan nan nan nan nan nan nan nan nan nan nan nan nan nan nan nan nan nan nan nan nan nan nan nan nan nan nan nan nan nan nan nan nan nan nan nan nan nan nan nan nan nan nan nan nan nan nan nan nan nan nan nan nan nan nan nan nan nan nan nan nan nan nan nan nan nan nan nan nan nan nan nan nan nan nan nan nan nan nan nan nan nan nan nan nan nan
nan nan nan nan nan nan nan nan nan nan nan nan nan nan nan nan nan nan nan nan nan nan nan nan nan nan nan nan nan nan nan nan nan nan nan nan nan nan nan nan nan nan nan nan nan nan nan nan nan nan nan nan nan nan nan nan nan nan nan nan nan nan nan nan nan nan nan nan nan nan nan nan nan nan nan nan nan nan nan nan nan nan nan nan nan nan nan nan nan nan nan nan nan nan nan nan nan nan nan nan nan nan nan
nan nan nan nan nan nan nan nan nan nan nan nan nan nan nan nan nan nan nan nan nan nan nan nan nan nan nan nan nan nan nan nan nan nan nan nan nan nan nan nan nan nan nan nan nan nan nan nan nan nan nan nan nan nan nan nan nan nan nan nan nan nan nan nan nan nan nan nan nan nan nan nan nan nan nan nan nan nan nan nan nan nan nan nan nan nan nan nan nan nan nan nan nan nan nan nan nan nan nan nan nan nan nan
nan nan nan nan nan nan nan nan nan nan nan nan nan nan nan nan nan nan nan nan nan nan nan nan nan nan nan nan nan nan nan nan nan nan nan nan nan nan nan nan nan nan nan nan nan nan nan nan nan nan nan nan nan nan nan nan nan nan nan nan nan nan nan nan nan nan nan nan nan nan nan nan nan nan nan nan nan nan nan nan nan nan nan nan nan nan nan nan nan nan nan nan nan nan nan 0 0 0 nan nan nan nan nan
nan nan nan nan nan nan nan nan nan nan nan nan nan nan nan nan nan nan nan nan nan nan nan nan nan nan nan nan nan nan nan nan nan nan nan nan nan nan nan nan nan nan nan nan nan nan nan nan nan nan nan nan nan nan nan nan nan nan nan nan nan nan nan nan nan nan nan nan nan nan nan nan nan nan nan nan nan nan nan nan nan nan nan nan nan nan nan nan nan nan nan nan nan nan 0 1 1 1 0 0 0 nan nan
nan nan nan nan nan nan nan nan nan nan nan nan nan nan nan nan nan nan nan nan nan nan nan nan nan nan nan nan nan nan nan nan nan nan nan nan nan nan nan nan nan nan nan nan nan nan nan nan nan nan nan nan nan nan nan nan nan nan nan nan nan nan nan nan nan nan nan nan nan nan nan nan nan nan nan nan nan nan nan nan nan nan nan nan nan nan nan nan nan nan nan nan nan nan 0 1 1 1 1 0 0 nan nan
nan nan nan nan nan nan nan nan nan nan nan nan nan nan nan nan nan nan nan nan nan nan nan nan nan nan nan nan nan nan nan nan nan nan nan nan nan nan nan nan nan nan nan nan nan nan nan nan nan nan nan nan nan nan nan nan nan nan nan nan nan nan nan nan nan nan nan nan nan nan nan nan nan nan nan nan nan nan nan nan nan nan nan nan nan nan nan nan nan nan nan nan nan nan nan 1 1 1 1 0 0 0 1
nan nan nan nan nan nan nan nan nan nan nan nan nan nan nan nan nan nan nan nan nan nan nan nan nan nan nan nan nan nan nan nan nan nan nan nan nan nan nan nan nan nan nan nan nan nan nan nan nan nan nan nan nan nan nan nan nan nan nan nan nan nan nan nan nan nan nan nan nan nan nan nan nan nan nan nan nan nan nan nan nan nan nan nan nan nan nan nan nan nan nan nan nan nan nan 0 0 1 1 0 0 0 1
nan nan nan nan nan nan nan nan nan nan nan nan nan nan nan nan nan nan nan nan nan nan nan nan nan nan nan nan nan nan nan nan nan nan nan nan nan nan nan nan nan nan nan nan nan nan nan nan nan nan nan nan nan nan nan nan nan nan nan nan nan nan nan nan nan nan nan nan nan nan nan nan nan nan nan nan nan nan nan nan nan nan nan nan nan nan nan nan nan nan nan nan nan nan nan 0 0 0 0 0 0 1 1
nan nan nan nan nan nan nan nan nan nan nan nan nan nan nan nan nan nan nan nan nan nan nan nan nan nan nan nan nan nan nan nan nan nan nan nan nan nan nan nan nan nan nan nan nan nan nan nan nan nan nan nan nan nan nan nan nan nan nan nan nan nan nan nan nan nan nan nan nan nan nan nan nan nan nan nan nan nan nan nan nan nan nan nan nan nan nan nan nan nan nan nan nan nan nan nan nan nan nan 0 0 0 1
nan nan nan nan nan nan nan nan nan nan nan nan nan nan nan nan nan nan nan nan nan nan nan nan nan nan nan nan nan nan nan nan nan nan nan nan nan nan nan nan nan nan nan nan nan nan nan nan nan nan nan nan nan nan nan nan nan nan nan nan nan nan nan nan nan nan nan nan nan nan nan nan nan nan nan nan nan nan nan nan nan nan nan nan nan nan nan nan nan nan nan nan nan nan nan nan nan nan nan nan nan 0 0
nan nan nan nan nan nan nan nan nan nan nan nan nan nan nan nan nan nan nan nan nan nan nan nan nan nan nan nan nan nan nan nan nan nan nan nan nan nan nan nan nan nan nan nan nan nan nan nan nan nan nan nan nan nan nan nan nan nan nan nan nan nan nan nan nan nan nan nan nan nan nan nan nan nan nan nan nan nan nan nan nan nan nan nan nan nan nan nan nan nan nan nan nan nan nan nan nan nan nan nan nan 0 0
nan nan nan nan nan nan nan nan nan nan nan nan nan nan nan nan nan nan nan nan nan nan nan nan nan nan nan nan nan nan nan nan nan nan nan nan nan nan nan nan nan nan nan nan nan nan nan nan nan nan nan nan nan nan nan nan nan nan nan nan nan nan nan nan nan nan nan nan nan nan nan nan nan nan nan nan nan nan nan nan nan nan nan nan nan nan nan nan nan nan nan nan nan nan nan nan nan nan nan nan nan nan 0
nan nan nan nan nan nan nan nan nan nan nan nan nan nan nan nan nan nan nan nan nan nan nan nan nan nan nan nan nan nan nan nan nan nan nan nan nan nan nan nan nan nan nan nan nan nan nan nan nan nan nan nan nan nan nan nan nan nan nan nan nan nan nan nan nan nan nan nan nan nan nan nan nan nan nan nan nan nan nan nan nan nan nan nan nan nan nan nan nan nan nan nan nan nan nan nan nan nan nan nan nan nan nan
nan nan nan nan nan nan nan nan nan nan nan nan nan nan nan nan nan nan nan nan nan nan nan nan nan nan nan nan nan nan nan nan nan nan nan nan nan nan nan nan nan nan nan nan nan nan nan nan nan nan nan nan nan nan nan nan nan nan nan nan nan nan nan nan nan nan nan nan nan nan nan nan nan nan nan nan nan nan nan nan nan nan nan nan nan nan nan nan nan nan nan nan nan nan nan nan nan nan nan nan nan nan nan
nan nan nan nan nan nan nan nan nan nan nan nan nan nan nan nan nan nan nan nan nan nan nan nan nan nan nan nan nan nan nan nan nan nan nan nan nan nan nan nan nan nan nan nan nan nan nan nan nan nan nan nan nan nan nan nan nan nan nan nan nan nan nan nan nan nan nan nan nan nan nan nan nan nan nan nan nan nan nan nan nan nan nan nan nan nan nan nan nan nan nan nan nan nan nan nan nan nan nan nan nan nan nan
nan nan nan nan nan nan nan nan nan nan nan nan nan nan nan nan nan nan nan nan nan nan nan nan nan nan nan nan nan nan nan nan nan nan nan nan nan nan nan nan nan nan nan nan nan nan nan nan nan nan nan nan nan nan nan nan nan nan nan nan nan nan nan nan nan nan nan nan nan nan nan nan nan nan nan nan nan nan nan nan nan nan nan nan nan nan nan nan nan nan nan nan nan nan nan nan nan nan nan nan nan nan nan
nan nan nan nan nan nan nan nan nan nan nan nan nan nan nan nan nan nan nan nan nan nan nan nan nan nan nan nan nan nan nan nan nan nan nan nan nan nan nan nan nan nan nan nan nan nan nan nan nan nan nan nan nan nan nan nan nan nan nan nan nan nan nan nan nan nan nan nan nan nan nan nan nan nan nan nan nan nan nan nan nan nan nan nan nan nan nan nan nan nan nan nan nan nan nan nan nan nan nan nan nan nan nan
nan nan nan nan nan nan nan nan nan nan nan nan nan nan nan nan nan nan nan nan nan nan nan nan nan nan nan nan nan nan nan nan nan nan nan nan nan nan nan nan nan nan nan nan nan nan nan nan nan nan nan nan nan nan nan nan nan nan nan nan nan nan nan nan nan nan nan nan nan nan nan nan nan nan nan nan nan nan nan nan nan nan nan nan nan nan nan nan nan nan nan nan nan nan nan nan nan nan nan nan nan nan nan
nan nan nan nan nan nan nan nan nan nan nan nan nan nan nan nan nan nan nan nan nan nan nan nan nan nan nan nan nan nan nan nan nan nan nan nan nan nan nan nan nan nan nan nan nan nan nan nan nan nan nan nan nan nan nan nan nan nan nan nan nan nan nan nan nan nan nan nan nan nan nan nan nan nan nan nan nan nan nan nan nan nan nan nan nan nan nan nan nan nan nan nan nan nan nan nan nan nan nan nan nan nan nan
nan nan nan nan nan nan nan nan nan nan nan nan nan nan nan nan nan nan nan nan nan nan nan nan nan nan nan nan nan nan nan nan nan nan nan nan nan nan nan nan nan nan nan nan nan nan nan nan nan nan nan nan nan nan nan nan nan nan nan nan nan nan nan nan nan nan nan nan nan nan nan nan nan nan nan nan nan nan nan nan nan nan nan nan nan nan nan nan nan nan nan nan nan nan nan nan nan nan nan nan nan nan nan
nan nan nan nan nan nan nan nan nan nan nan nan nan nan nan nan nan nan nan nan nan nan nan nan nan nan nan nan nan nan nan nan nan nan nan nan nan nan nan nan nan nan nan nan nan nan nan nan nan nan nan nan nan nan nan nan nan nan nan nan nan nan nan nan nan nan nan nan nan nan nan nan nan nan nan nan nan nan nan nan nan nan nan nan nan nan nan nan nan nan nan nan nan nan nan nan nan nan nan nan nan nan nan
nan nan nan nan nan nan nan nan nan nan nan nan nan nan nan nan nan nan nan nan nan nan nan nan nan nan nan nan nan nan nan nan nan nan nan nan nan nan nan nan nan nan nan nan nan nan nan nan nan nan nan nan nan nan nan nan nan nan nan nan nan nan nan nan nan nan nan nan nan nan nan nan nan nan nan nan nan nan nan nan nan nan nan nan nan nan nan nan nan nan nan nan nan nan nan nan nan nan nan nan nan nan nan
nan nan nan nan nan nan nan nan nan nan nan nan nan nan nan nan nan nan nan nan nan nan nan nan nan nan nan nan nan nan nan nan nan nan nan nan nan nan nan nan nan nan nan nan nan nan nan nan nan nan nan nan nan nan nan nan nan nan nan nan nan nan nan nan nan nan nan nan nan nan nan nan nan nan nan nan nan nan nan nan nan nan nan nan nan nan nan nan nan nan nan nan nan nan nan nan nan nan nan nan nan nan nan
nan nan nan nan nan nan nan nan nan nan nan nan nan nan nan nan nan nan nan nan nan nan nan nan nan nan nan nan nan nan nan nan nan nan nan nan nan nan nan nan nan nan nan nan nan nan nan nan nan nan nan nan nan nan nan nan nan nan nan nan nan nan nan nan nan nan nan nan nan nan nan nan nan nan nan nan nan nan nan nan nan nan nan nan nan nan nan nan nan nan nan nan nan nan nan nan nan nan nan nan nan nan nan
nan nan nan nan nan nan nan nan nan nan nan nan nan nan nan nan nan nan nan nan nan nan nan nan nan nan nan nan nan nan nan nan nan nan nan nan nan nan nan nan nan nan nan nan nan nan nan nan nan nan nan nan nan nan nan nan nan nan nan nan nan nan nan nan nan nan nan nan nan nan nan nan nan nan nan nan nan nan nan nan nan nan nan nan nan nan nan nan nan nan nan nan nan nan nan nan nan nan nan nan nan nan nan
nan nan nan nan nan nan nan nan nan nan nan nan nan nan nan nan nan nan nan nan nan nan nan nan nan nan nan nan nan nan nan nan nan nan nan nan nan nan nan nan nan nan nan nan nan nan nan nan nan nan nan nan nan nan nan nan nan nan nan nan nan nan nan nan nan nan nan nan nan nan nan nan nan nan nan nan nan nan nan nan nan nan nan nan nan nan nan nan nan nan nan nan nan nan nan nan nan nan nan nan nan nan nan
nan nan nan nan nan nan nan nan nan nan nan nan nan nan nan nan nan nan nan nan nan nan nan nan nan nan nan nan nan nan nan nan nan nan nan nan nan nan nan nan nan nan nan nan nan nan nan nan nan nan nan nan nan nan nan nan nan nan nan nan nan nan nan nan nan nan nan nan nan nan nan nan nan nan nan nan nan nan nan nan nan nan nan nan nan nan nan nan nan nan nan nan nan nan nan nan nan nan nan nan nan nan nan